Time,TemperatureF,DewpointF,PressureIn,WindDirection,WindDirectionDegrees,WindSpeedMPH,WindSpeedGustMPH,Humidity,HourlyPrecipIn,Conditions,Clouds,dailyrainin,SoftwareType,DateUTC
2013-01-13 00:00:00,43.0,41.0,29.78,NW,315,6.0,16.0,94,0.16,,,0.43,weatherlink.com 1.10,2013-01-13 05:00:00,
2013-01-13 00:15:00,41.9,41.0,29.79,NW,308,6.0,13.0,95,0.14,,,0.00,weatherlink.com 1.10,2013-01-13 05:15:00,
2013-01-13 00:45:00,40.3,39.0,29.78,NNE,12,7.0,13.0,94,0.05,,,0.02,weatherlink.com 1.10,2013-01-13 05:45:00,
2013-01-13 01:00:00,40.0,39.0,29.80,NNE,19,8.0,14.0,94,0.03,,,0.03,weatherlink.com 1.10,2013-01-13 06:00:00,
2013-01-13 01:15:00,39.5,38.0,29.79,North,11,4.0,12.0,94,0.06,,,0.06,weatherlink.com 1.10,2013-01-13 06:15:00,
2013-01-13 01:30:00,39.0,38.0,29.79,NNE,25,4.0,9.0,94,0.09,,,0.10,weatherlink.com 1.10,2013-01-13 06:30:00,
2013-01-13 01:45:00,38.6,37.0,29.81,NW,312,6.0,14.0,94,0.14,,,0.16,weatherlink.com 1.10,2013-01-13 06:45:00,
2013-01-13 02:00:00,38.2,37.0,29.79,North,1,7.0,12.0,94,0.20,,,0.23,weatherlink.com 1.10,2013-01-13 07:00:00,
2013-01-13 02:15:00,37.9,36.0,29.79,NNW,347,7.0,9.0,94,0.21,,,0.27,weatherlink.com 1.10,2013-01-13 07:15:00,
2013-01-13 02:30:00,37.7,36.0,29.78,NNE,26,7.0,11.0,94,0.21,,,0.32,weatherlink.com 1.10,2013-01-13 07:30:00,
2013-01-13 02:45:00,37.6,36.0,29.76,North,6,3.0,9.0,95,0.19,,,0.35,weatherlink.com 1.10,2013-01-13 07:45:00,
2013-01-13 03:00:00,37.6,36.0,29.82,WNW,291,6.0,11.0,95,0.15,,,0.38,weatherlink.com 1.10,2013-01-13 08:00:00,
2013-01-13 03:15:00,37.3,36.0,29.80,North,4,6.0,15.0,94,0.13,,,0.41,weatherlink.com 1.10,2013-01-13 08:15:00,
2013-01-13 03:45:00,37.1,36.0,29.81,NNW,336,1.0,11.0,94,0.07,,,0.42,weatherlink.com 1.10,2013-01-13 08:45:00,
2013-01-13 04:00:00,37.1,35.0,29.81,NNW,330,5.0,13.0,93,0.04,,,0.42,weatherlink.com 1.10,2013-01-13 09:00:00,
2013-01-13 04:15:00,37.0,35.0,29.84,WNW,297,6.0,8.0,93,0.01,,,0.42,weatherlink.com 1.10,2013-01-13 09:15:00,
2013-01-13 04:30:00,37.0,35.0,29.83,North,5,2.0,9.0,93,0.00,,,0.42,weatherlink.com 1.10,2013-01-13 09:30:00,
2013-01-13 04:45:00,36.9,35.0,29.83,North,356,4.0,15.0,92,0.00,,,0.42,weatherlink.com 1.10,2013-01-13 09:45:00,
2013-01-13 05:00:00,36.9,35.0,29.83,WNW,301,4.0,10.0,91,0.00,,,0.42,weatherlink.com 1.10,2013-01-13 10:00:00,
2013-01-13 05:15:00,37.0,34.0,29.82,NNW,335,2.0,10.0,90,0.00,,,0.42,weatherlink.com 1.10,2013-01-13 10:15:00,
2013-01-13 05:30:00,36.8,35.0,29.80,NNE,18,6.0,8.0,91,0.00,,,0.42,weatherlink.com 1.10,2013-01-13 10:30:00,
2013-01-13 05:45:00,36.5,35.0,29.83,NW,308,3.0,7.0,93,0.00,,,0.42,weatherlink.com 1.10,2013-01-13 10:45:00,
2013-01-13 06:00:00,36.4,35.0,29.83,NW,309,1.0,5.0,93,0.00,,,0.42,weatherlink.com 1.10,2013-01-13 11:00:00,
2013-01-13 06:15:00,36.3,35.0,29.84,NNW,341,0.0,5.0,94,0.00,,,0.42,weatherlink.com 1.10,2013-01-13 11:15:00,
2013-01-13 06:30:00,36.3,35.0,29.84,North,359,1.0,5.0,94,0.00,,,0.42,weatherlink.com 1.10,2013-01-13 11:30:00,
2013-01-13 06:45:00,36.2,35.0,29.85,WNW,292,2.0,6.0,94,0.00,,,0.42,weatherlink.com 1.10,2013-01-13 11:45:00,
2013-01-13 07:01:00,36.3,35.0,29.87,West,267,2.0,4.0,94,0.00,,,0.42,weatherlink.com 1.10,2013-01-13 12:01:00,
2013-01-13 07:16:00,36.3,35.0,29.89,WSW,257,3.0,4.0,94,0.00,,,0.42,weatherlink.com 1.10,2013-01-13 12:16:00,
2013-01-13 07:31:00,36.3,35.0,29.90,West,263,3.0,3.0,94,0.00,,,0.42,weatherlink.com 1.10,2013-01-13 12:31:00,
2013-01-13 07:46:00,36.3,35.0,29.91,WNW,283,3.0,6.0,94,0.00,,,0.42,weatherlink.com 1.10,2013-01-13 12:46:00,
2013-01-13 08:01:00,36.2,35.0,29.91,WNW,282,2.0,6.0,95,0.00,,,0.42,weatherlink.com 1.10,2013-01-13 13:01:00,
2013-01-13 08:31:00,36.0,35.0,29.91,West,277,2.0,7.0,96,0.00,,,0.42,weatherlink.com 1.10,2013-01-13 13:31:00,
2013-01-13 08:46:00,35.8,35.0,29.91,West,269,4.0,7.0,96,0.00,,,0.42,weatherlink.com 1.10,2013-01-13 13:46:00,
2013-01-13 09:01:00,35.7,35.0,29.91,WNW,283,3.0,7.0,96,0.00,,,0.42,weatherlink.com 1.10,2013-01-13 14:01:00,
2013-01-13 09:16:00,35.6,35.0,29.92,WNW,297,3.0,7.0,96,0.00,,,0.42,weatherlink.com 1.10,2013-01-13 14:16:00,
2013-01-13 09:46:00,35.8,35.0,29.93,WNW,291,3.0,9.0,95,0.00,,,0.42,weatherlink.com 1.10,2013-01-13 14:46:00,
2013-01-13 10:01:00,36.0,35.0,29.93,NW,307,4.0,8.0,95,0.00,,,0.42,weatherlink.com 1.10,2013-01-13 15:01:00,
2013-01-13 10:16:00,36.0,35.0,29.95,West,278,4.0,8.0,95,0.00,,,0.42,weatherlink.com 1.10,2013-01-13 15:16:00,
2013-01-13 10:31:00,35.9,35.0,29.93,West,280,2.0,8.0,95,0.00,,,0.42,weatherlink.com 1.10,2013-01-13 15:31:00,
2013-01-13 10:46:00,35.9,35.0,29.94,WNW,292,6.0,10.0,96,0.00,,,0.42,weatherlink.com 1.10,2013-01-13 15:46:00,
2013-01-13 11:01:00,36.0,35.0,29.91,NNW,348,3.0,5.0,96,0.00,,,0.42,weatherlink.com 1.10,2013-01-13 16:01:00,
2013-01-13 11:16:00,36.1,35.0,29.95,West,279,8.0,11.0,96,0.00,,,0.42,weatherlink.com 1.10,2013-01-13 16:16:00,
2013-01-13 11:31:00,36.1,35.0,29.95,West,278,5.0,8.0,96,0.00,,,0.42,weatherlink.com 1.10,2013-01-13 16:31:00,
2013-01-13 11:46:00,36.2,35.0,29.97,West,270,7.0,9.0,95,0.00,,,0.42,weatherlink.com 1.10,2013-01-13 16:46:00,
2013-01-13 12:01:00,36.3,35.0,29.96,WNW,287,10.0,11.0,95,0.00,,,0.42,weatherlink.com 1.10,2013-01-13 17:01:00,
2013-01-13 12:16:00,36.3,35.0,29.93,NW,311,3.0,11.0,95,0.01,,,0.43,weatherlink.com 1.10,2013-01-13 17:16:00,
2013-01-13 12:31:00,36.4,35.0,29.92,West,280,2.0,7.0,96,0.01,,,0.43,weatherlink.com 1.10,2013-01-13 17:31:00,
2013-01-13 12:46:00,35.9,35.0,29.92,WNW,287,6.0,11.0,95,0.01,,,0.43,weatherlink.com 1.10,2013-01-13 17:46:00,
2013-01-13 13:01:00,35.4,34.0,29.90,NW,315,5.0,8.0,95,0.00,,,0.43,weatherlink.com 1.10,2013-01-13 18:01:00,
2013-01-13 13:16:00,35.5,34.0,29.86,North,358,2.0,7.0,95,0.00,,,0.43,weatherlink.com 1.10,2013-01-13 18:16:00,
2013-01-13 13:46:00,35.6,34.0,29.88,WNW,297,4.0,8.0,95,0.00,,,0.43,weatherlink.com 1.10,2013-01-13 18:46:00,
2013-01-13 14:01:00,35.1,34.0,29.91,West,277,4.0,14.0,96,0.00,,,0.43,weatherlink.com 1.10,2013-01-13 19:01:00,
2013-01-13 14:16:00,34.2,33.0,29.94,WNW,287,7.0,19.0,95,0.03,,,0.46,weatherlink.com 1.10,2013-01-13 19:16:00,
2013-01-13 14:31:00,33.7,33.0,29.95,WNW,284,8.0,17.0,96,0.07,,,0.50,weatherlink.com 1.10,2013-01-13 19:31:00,
2013-01-13 14:46:00,33.3,32.0,29.95,NW,325,5.0,12.0,95,0.11,,,0.54,weatherlink.com 1.10,2013-01-13 19:46:00,
2013-01-13 15:01:00,32.7,32.0,29.96,NW,305,7.0,13.0,95,0.14,,,0.57,weatherlink.com 1.10,2013-01-13 20:01:00,
2013-01-13 15:16:00,32.2,31.0,29.97,NW,309,4.0,13.0,94,0.13,,,0.59,weatherlink.com 1.10,2013-01-13 20:16:00,
2013-01-13 15:31:00,32.0,31.0,29.98,WNW,295,1.0,9.0,94,0.12,,,0.62,weatherlink.com 1.10,2013-01-13 20:31:00,
2013-01-13 15:46:00,32.0,31.0,29.98,WNW,297,6.0,10.0,94,0.10,,,0.64,weatherlink.com 1.10,2013-01-13 20:46:00,
2013-01-13 16:02:00,32.0,31.0,29.99,WNW,302,6.0,8.0,94,0.08,,,0.65,weatherlink.com 1.10,2013-01-13 21:02:00,
2013-01-13 16:17:00,32.1,31.0,29.99,NW,312,2.0,6.0,94,0.06,,,0.65,weatherlink.com 1.10,2013-01-13 21:17:00,
2013-01-13 16:47:00,32.0,31.0,29.99,West,267,2.0,6.0,94,0.01,,,0.66,weatherlink.com 1.10,2013-01-13 21:47:00,
2013-01-13 17:02:00,31.9,30.0,29.99,WNW,301,1.0,7.0,94,0.01,,,0.66,weatherlink.com 1.10,2013-01-13 22:02:00,
2013-01-13 17:17:00,31.8,30.0,29.98,WNW,293,5.0,5.0,94,0.01,,,0.66,weatherlink.com 1.10,2013-01-13 22:17:00,
2013-01-13 17:32:00,31.5,30.0,30.00,West,274,3.0,7.0,94,0.00,,,0.66,weatherlink.com 1.10,2013-01-13 22:32:00,
2013-01-13 17:47:00,31.5,30.0,30.02,West,277,6.0,7.0,94,0.00,,,0.66,weatherlink.com 1.10,2013-01-13 22:47:00,
2013-01-13 18:02:00,31.3,30.0,30.02,West,278,6.0,8.0,95,0.00,,,0.66,weatherlink.com 1.10,2013-01-13 23:02:00,
2013-01-13 18:17:00,31.2,30.0,30.04,WNW,285,2.0,8.0,95,0.00,,,0.66,weatherlink.com 1.10,2013-01-13 23:17:00,
2013-01-13 18:32:00,30.9,30.0,30.05,West,262,8.0,10.0,95,0.00,,,0.66,weatherlink.com 1.10,2013-01-13 23:32:00,
2013-01-13 18:47:00,30.6,29.0,30.05,WSW,249,7.0,8.0,95,0.00,,,0.66,weatherlink.com 1.10,2013-01-13 23:47:00,
2013-01-13 19:02:00,30.2,29.0,30.05,West,260,5.0,13.0,94,0.00,,,0.66,weatherlink.com 1.10,2013-01-14 00:02:00,
2013-01-13 19:17:00,30.1,29.0,30.06,WSW,250,10.0,12.0,94,0.00,,,0.66,weatherlink.com 1.10,2013-01-14 00:17:00,
2013-01-13 19:32:00,29.8,28.0,30.07,West,264,6.0,13.0,92,0.00,,,0.66,weatherlink.com 1.10,2013-01-14 00:32:00,
2013-01-13 19:47:00,29.5,27.0,30.08,West,269,10.0,14.0,91,0.00,,,0.66,weatherlink.com 1.10,2013-01-14 00:47:00,
2013-01-13 20:02:00,29.4,27.0,30.08,West,271,4.0,11.0,92,0.00,,,0.66,weatherlink.com 1.10,2013-01-14 01:02:00,
2013-01-13 20:17:00,28.6,27.0,30.10,West,281,7.0,18.0,92,0.00,,,0.66,weatherlink.com 1.10,2013-01-14 01:17:00,
2013-01-13 20:32:00,27.2,26.0,30.10,West,260,10.0,15.0,93,0.00,,,0.66,weatherlink.com 1.10,2013-01-14 01:32:00,
2013-01-13 21:02:00,26.2,24.0,30.12,WSW,256,8.0,12.0,92,0.00,,,0.66,weatherlink.com 1.10,2013-01-14 02:02:00,
2013-01-13 21:17:00,25.4,23.0,30.13,WSW,248,12.0,17.0,89,0.00,,,0.66,weatherlink.com 1.10,2013-01-14 02:17:00,
2013-01-13 21:32:00,24.5,22.0,30.14,WSW,252,9.0,15.0,88,0.00,,,0.66,weatherlink.com 1.10,2013-01-14 02:32:00,
2013-01-13 21:48:00,24.0,21.0,30.14,WSW,245,11.0,15.0,89,0.00,,,0.66,weatherlink.com 1.10,2013-01-14 02:48:00,
2013-01-13 22:03:00,23.4,20.0,30.15,West,260,12.0,16.0,88,0.00,,,0.66,weatherlink.com 1.10,2013-01-14 03:03:00,
2013-01-13 22:18:00,22.6,19.0,30.16,West,277,13.0,17.0,87,0.00,,,0.66,weatherlink.com 1.10,2013-01-14 03:18:00,
2013-01-13 22:33:00,22.4,19.0,30.17,West,259,11.0,13.0,88,0.00,,,0.66,weatherlink.com 1.10,2013-01-14 03:33:00,
2013-01-13 22:48:00,22.1,19.0,30.17,WSW,250,10.0,14.0,88,0.00,,,0.66,weatherlink.com 1.10,2013-01-14 03:48:00,
2013-01-13 23:03:00,21.6,18.0,30.18,WSW,256,7.0,19.0,87,0.00,,,0.66,weatherlink.com 1.10,2013-01-14 04:03:00,
2013-01-13 23:18:00,21.5,19.0,30.19,West,259,8.0,14.0,88,0.00,,,0.66,weatherlink.com 1.10,2013-01-14 04:18:00,
2013-01-13 23:33:00,21.2,18.0,30.20,West,264,7.0,13.0,88,0.00,,,0.66,weatherlink.com 1.10,2013-01-14 04:33:00,
2013-01-13 23:48:00,20.9,18.0,30.21,WSW,257,11.0,16.0,87,0.00,,,0.66,weatherlink.com 1.10,2013-01-14 04:48:00,